Hauptseite
METAR-TAF:

METAR-TAF

Flughäfen :

Fliegerhorst Meppen

Meppen, Deutschland

Breite: 52-43-24N, Länge: 007-19-35E, Höhe: 21 m

Beobachtung

Neuester Wetterbericht von vor 59 Minuten, um 11:20 UTC
Wind 9 kt aus Süd/Südwest
Temperatur 22°C
Luftfeuchtigkeit 43%
Luftdruck 1021 hPa
Sichtweite 10 km oder mehr

METAR: ETWM 181120Z AUTO 20009KT 9999 // ////// 22/09 Q1021 ///

Zeit: 14:19 (12:19 UTC)


TAF: fehlend

Wetterbeobachtungen und Prognosen von mehr als 4000 Flughäfen (METAR und TAF Bericht).

Die verfügbaren Stationen werden durch gelbe und rote Markierungen auf der Karte dargestellt.

Führen Sie die Maus auf sie, um den Namen der Station zu sehen.

Darauf klicken, um die Beobachtung von Wetterbeobachtungen und Prognosen zu sehen.

Um die Karte zu ändern : klicken Sie auf den grünen Tasten mit einem schwarzen Kreuz Zum Vergrößern, auf den grünen Button mit einem Gedankenstrich zu verkleinern, oder auf die grünen Pfeile für benachbarte Karten.


METAR-TAF: